Regional Weather Roundup
Issued by NWS Spokane, WA

Home | Current Version | Previous Version | Text Only | Print | Product List | Glossary On
Versions: 1 2 3 4 5 6 7 8 9 10 11 12 13 14 15 16 17 18 19 20 21 22 23 24 25 26 27 28 29 30 31 32 33 34 35 36 37 38 39 40 41 42 43 44 45 46 47 48 49 50
799
NZUS01 KOTX 272210
RWROTX
EASTERN WASHINGTON/NORTHERN IDAHO ROUNDUP
NATIONAL WEATHER SERVICE, SPOKANE WA
300 PM PDT FRI MAY 27 2016

Note: "fair" indicated few or no clouds below 12,000 feet with no
significant weather and/or obstructions to visibility.

...NORTHEAST WASHINGTON AND NORTHERN IDAHO PANHANDLE...

CITY           SKY/WX    TMP DP  RH WIND       PRES   REMARKS
SPOKANE INTL   PTSUNNY   60  25  26 SW21G26   29.98F
SPOKANE DOWNTO PTSUNNY   63  31  30 SW18G28   29.99F
COEUR D ALENE  PTSUNNY   59  39  47 SW9       29.97F
DEER PARK      CLOUDY    58  31  35 S16G24    29.98S
SANDPOINT      MOSUNNY   55  43  62 SW6       29.98F
BONNERS FERRY  FAIR      48  41  76 S9G17     29.99R

...SOUTHEAST WASHINGTON AND SOUTHERN IDAHO PANHANDLE...

CITY           SKY/WX    TMP DP  RH WIND       PRES   REMARKS
WALLA WALLA    MOSUNNY   64  34  32 SW18G24   30.03F
PULLMAN/MOSCOW MOSUNNY   57  34  41 W9G17     30.04F
LEWISTON       MOSUNNY   65  35  33 MISG      30.01F
LOWELL           N/A     63  41  44 S5        30.01F

...COLUMBIA BASIN...

CITY           SKY/WX    TMP DP  RH WIND       PRES   REMARKS
EPHRATA        MOSUNNY   66  28  24 VRB5      29.95F
MOSES LAKE     MOSUNNY   69  29  22 SW16G22   29.97F
TRI CITIES     SUNNY     69  31  24 SW10      30.01F
HERMISTON      PTSUNNY   69  34  27 W12G22    30.01F
PENDLETON      MOSUNNY   65  27  23 SW18G29   30.03F

...EAST SLOPES CASCADES...

CITY           SKY/WX    TMP DP  RH WIND       PRES   REMARKS
THE DALLES     SUNNY     66  38  35 NW25G31   30.09R
YAKIMA         PTSUNNY   67  31  26 VRB3      30.01F
ELLENSBURG     SUNNY     61  35  37 NW26G36   30.03S
STAMPEDE PASS  LGT RAIN  39  33  79 NW8       30.09F
WENATCHEE      SUNNY     67  26  21 W16       29.97F
OMAK           MOSUNNY   67  31  26 NW7       29.94F

...SOUTHERN BRITISH COLUMBIA...

CITY           SKY/WX    TMP DP  RH WIND       PRES   REMARKS
PENTICTON      PTSUNNY   63  39  42 SE5       29.96F
CRANBROOK      PTSUNNY   57  36  44 S22G31    29.86F

...WESTERN MONTANA...

CITY           SKY/WX    TMP DP  RH WIND       PRES   REMARKS
MISSOULA       CLOUDY    60  36  40 W5        29.94F

...NEIGHBORING CITIES...

CITY           SKY/WX    TMP DP  RH WIND       PRES   REMARKS
SEATTLE        PTSUNNY   62  38  40 SW13      30.14F
CALGARY        PTSUNNY   54  45  71 N13       29.78F



USA.gov is the U.S. government's official web portal to all federal, state and local government web resources and services.